MAROC-TUBSAT

Last updated on Sat Oct 25 2025 00:02:31 GMT+0000 (Coordinated Universal Time)

1 27004U 01056D 25297.73306339 -.00000018 00000+0 31971-4 0 9998 2 27004 99.7911 105.3226 0020181 28.0635 351.5686 13.70249608193946
UTC large
Height (km)
Speed (km/s)
/
Latitude / Longitude
Inclination (degrees)
Orbital Period (minutes)
Azimuth
Elevation
Range (km)
Doppler Factor

Next 0 passes for location: London (51.5072 / 0.1276)

Sorry there are no passes over London.